Location: Wayah Bald
(35.1806°N, 83.5603°W)
Time: 05:54:39
(UTC-05:00)

Meteor 1-27 Rocket - Visible Passes

Search period start: 30 January 2015 00:00
Search period end: 09 February 2015 00:00
Orbit: 831 x 910 km, 81.3° (Epoch: 29 January)

Date Brightness Start Highest point End Pass type
(mag) Time Alt. Az. Time Alt. Az. Time Alt. Az.
30 Jan 4.0 19:26:41 10° N 19:32:17 46° ENE 19:37:47 10° SSE visible
30 Jan 6.1 21:11:07 10° NW 21:15:18 20° W 21:19:11 10° SW visible
31 Jan 3.9 19:20:34 10° N 19:26:11 48° ENE 19:31:42 10° SSE visible
31 Jan 6.2 21:05:06 10° NW 21:09:10 19° W 21:12:56 10° SW visible
01 Feb 3.9 19:14:26 10° N 19:20:04 49° ENE 19:25:36 10° SSE visible
01 Feb 6.2 20:59:05 10° NW 21:03:02 18° W 21:06:41 10° SW visible
02 Feb 3.9 19:08:18 10° N 19:13:58 51° ENE 19:19:30 10° SSE visible
02 Feb 6.3 20:53:05 10° NW 20:56:54 18° W 21:00:25 10° SW visible
03 Feb 3.9 19:02:11 10° N 19:07:51 53° ENE 19:13:24 10° SSE visible
03 Feb 6.4 20:47:04 10° NW 20:50:46 17° W 20:54:08 10° SW visible
04 Feb 3.8 18:56:04 10° N 19:01:45 55° ENE 19:07:18 10° SSE visible
04 Feb 6.5 20:41:04 10° NW 20:44:38 16° W 20:47:52 10° WSW visible
05 Feb 3.8 18:49:56 10° N 18:55:38 57° ENE 19:01:12 10° SSE visible
05 Feb 6.6 20:35:04 10° NW 20:38:30 16° W 20:41:35 10° WSW visible
06 Feb 3.8 18:43:49 10° N 18:49:31 59° E 18:55:06 10° SSE visible
06 Feb 6.6 20:29:06 10° NW 20:32:22 15° W 20:35:17 10° WSW visible
07 Feb 7.3 06:15:09 10° E 06:15:15 10° E 06:15:51 10° E visible
07 Feb 3.8 18:37:41 10° N 18:43:24 61° E 18:48:59 10° SSE visible
07 Feb 6.7 20:23:08 10° NW 20:26:14 14° W 20:28:58 10° WSW visible
08 Feb 7.3 06:08:13 10° E 06:09:07 11° E 06:10:29 10° ENE visible
08 Feb 3.8 18:31:34 10° N 18:37:17 63° E 18:42:52 10° SSE visible
08 Feb 6.8 20:17:10 10° NW 20:20:05 14° W 20:22:38 10° WSW visible
